Location: Asheville, NC
(35.6000°N, 82.5500°W)
Time: 06:48:15
(UTC-05:00)

Iridium 28 - Visible Passes

Search period start: 18 January 2018 00:00
Search period end: 28 January 2018 00:00
Orbit: 772 x 774 km, 86.4° (Epoch: 17 January)

Date Brightness Start Highest point End Pass type
(mag) Time Alt. Az. Time Alt. Az. Time Alt. Az.
18 Jan 5.7 05:37:18 10° S 05:42:26 71° E 05:47:36 10° N visible
19 Jan 7.0 05:03:03 10° SSE 05:07:42 35° E 05:12:22 10° NNE visible
19 Jan 6.6 06:44:24 10° SW 06:48:21 22° W 06:52:20 10° NNW visible
20 Jan 8.0 04:29:41 10° ESE 04:33:06 18° E 04:36:30 10° NE visible
20 Jan 5.8 06:08:24 10° SSW 06:13:18 43° W 06:18:14 10° NNW visible
20 Jan 8.3 18:22:20 10° NW 18:25:50 19° W 18:29:20 10° SW visible
21 Jan 5.4 05:33:12 10° S 05:38:23 86° W 05:43:36 10° N visible
22 Jan 6.4 04:58:39 10° SSE 05:03:35 47° E 05:08:33 10° NNE visible
22 Jan 6.9 06:41:15 10° WSW 06:44:26 16° WNW 06:47:39 10° NW visible
23 Jan 7.6 04:24:51 10° SE 04:28:55 24° E 04:33:01 10° NNE visible
23 Jan 6.1 06:04:44 10° SW 06:09:20 32° W 06:13:56 10° NNW visible
23 Jan 8.4 18:19:08 10° NW 18:21:39 14° W 18:24:09 10° WSW visible
24 Jan8.703:57:34NE03:57:34NE03:50:54ESEvisible
24 Jan 7.0 05:29:14 10° SSW 05:38:05 19° N 05:39:30 10° N visible
25 Jan 8.0 05:04:38 10° N 05:04:38 10° N 04:53:50 - S visible
